Frederick, MD

1:36 PM EST on December 15, 2019 (GMT -0500)
Frederick Municipal

Weather History for KFDK - August, 2019

Change the Weather History Date:

Friday, August 9, 2019

  Actual Average (WUND) Record (WUND)
Temperature  
Mean Temperature 78 °F -  
Max Temperature 89 °F - - (-1)
Min Temperature 68 °F - - (-1)
Cooling Degree Days 14    
Growing Degree Days 28 (Base 50)    
Moisture  
Dew Point 60 °F    
Average Humidity 58    
Maximum Humidity 88    
Minimum Humidity 31    
Precipitation  
Precipitation 0.00 in - - ()
Sea Level Pressure  
Sea Level Pressure 29.85 in    
Wind  
Wind Speed 7 mph (WNW)    
Max Wind Speed 15 mph    
Max Gust Speed 23 mph    
Visibility 10 miles    
Events      
Averages and records for this station are not official NWS values.
T = Trace of Precipitation, MM = Missing Value Source: NWS Daily Summary

Daily Weather History Graph

Daily Weather History Graph

Search for Another Location

Airport or City:

Astronomy

Aug. 09, 2019 Rise Set
Actual Time 6:16 AM EDT 8:13 PM EDT
Civil Twilight 5:47 AM EDT 8:42 PM EDT
Nautical Twilight 5:11 AM EDT 9:17 PM EDT
Astronomical Twilight 4:32 AM EDT 9:55 PM EDT
Moon 3:51 PM EDT (8/9) 1:12 AM EDT (8/9)
Length of Visible Light 14h 55m
Length of Day
13h 56m
Waxing Gibbous, 70% of the Moon is Illuminated
Aug 9
Waxing Gibbous
Aug 15
Full
Aug 23
Last Quarter
Aug 30
New
Sep 5
First Quarter

Hourly Weather History & Observations

Time (EDT) Temp. Heat Index Dew Point Humidity Pressure Visibility Wind Dir Wind Speed Gust Speed Precip Events Conditions
3:45 AM 73.4 °F - 64.4 °F 73% 29.82 in 10.0 mi West 5.8 mph - N/A   Clear
4:05 AM 73.4 °F - 64.4 °F 73% 29.82 in 10.0 mi West 6.9 mph - N/A   Clear
4:25 AM 73.4 °F - 64.4 °F 73% 29.82 in 10.0 mi West 4.6 mph - N/A   Clear
4:45 AM 73.4 °F - 64.4 °F 73% 29.82 in 10.0 mi West 5.8 mph - N/A   Clear
5:05 AM 71.6 °F - 64.4 °F 78% 29.82 in 10.0 mi Calm Calm - N/A   Clear
5:25 AM 71.6 °F - 64.4 °F 78% 29.82 in 10.0 mi WNW 3.5 mph - N/A   Clear
5:45 AM 71.6 °F - 64.4 °F 78% 29.83 in 10.0 mi Calm Calm - N/A   Clear
6:05 AM 69.8 °F - 64.4 °F 83% 29.82 in 10.0 mi Calm Calm - N/A   Clear
6:25 AM 68.0 °F - 64.4 °F 88% 29.84 in 10.0 mi ESE 3.5 mph - N/A   Mostly Cloudy
6:45 AM 69.8 °F - 64.4 °F 83% 29.84 in 10.0 mi WNW 10.4 mph - N/A   Mostly Cloudy
7:05 AM 73.4 °F - 62.6 °F 69% 29.85 in 10.0 mi WNW 11.5 mph - N/A   Scattered Clouds
7:47 AM 77.0 °F - 64.4 °F 65% 29.86 in 10.0 mi WNW 11.5 mph 23.0 mph N/A   Scattered Clouds
8:47 AM 78.8 °F - 66.2 °F 65% 29.87 in 10.0 mi WNW 15.0 mph 20.7 mph N/A   Clear
9:47 AM 78.8 °F - 66.2 °F 65% 29.87 in 10.0 mi West 13.8 mph 19.6 mph N/A   Scattered Clouds
10:47 AM 82.4 °F 84.6 °F 66.2 °F 58% 29.87 in 10.0 mi WNW 11.5 mph 17.3 mph N/A   Scattered Clouds
11:47 AM 84.2 °F 85.6 °F 64.4 °F 51% 29.86 in 10.0 mi NW 13.8 mph 18.4 mph N/A   Scattered Clouds
12:47 PM 86.0 °F 87.3 °F 64.4 °F 48% 29.85 in 10.0 mi NW 12.7 mph 18.4 mph N/A   Scattered Clouds
1:47 PM 87.8 °F 88.5 °F 62.6 °F 43% 29.84 in 10.0 mi West 10.4 mph - N/A   Scattered Clouds
2:52 PM 87.8 °F 87.1 °F 59.0 °F 38% 29.82 in 10.0 mi WNW 10.4 mph 16.1 mph N/A   Scattered Clouds
3:47 PM 87.8 °F 87.1 °F 59.0 °F 38% 29.81 in 10.0 mi West 13.8 mph 19.6 mph N/A   Scattered Clouds
4:50 PM 89.6 °F 87.7 °F 55.4 °F 31% 29.80 in 10.0 mi NW 12.7 mph 17.3 mph N/A   Partly Cloudy
5:47 PM 87.8 °F 85.7 °F 53.6 °F 31% 29.81 in 10.0 mi NW 10.4 mph 17.3 mph N/A   Partly Cloudy
6:47 PM 86.0 °F - 51.8 °F 31% 29.82 in 10.0 mi NW 15.0 mph - N/A   Clear
7:47 PM 82.4 °F - 51.8 °F 35% 29.84 in 10.0 mi NW 9.2 mph - N/A   Clear
9:25 PM 73.4 °F - 53.6 °F 50% 29.87 in 7.0 mi WNW 6.9 mph - N/A   Clear
9:45 PM 75.2 °F - 51.8 °F 44% 29.88 in 10.0 mi WNW 6.9 mph - N/A   Clear
10:05 PM 75.2 °F - 50.0 °F 41% 29.88 in 10.0 mi Calm Calm - N/A   Clear
10:25 PM 73.4 °F - 51.8 °F 47% 29.89 in 10.0 mi NW 4.6 mph - N/A   Clear
10:45 PM 71.6 °F - 55.4 °F 57% 29.89 in 10.0 mi Calm Calm - N/A   Clear
11:05 PM 69.8 °F - 57.2 °F 64% 29.90 in 10.0 mi Calm Calm - N/A   Clear
11:45 PM 71.6 °F - 53.6 °F 53% 29.91 in 10.0 mi NNW 4.6 mph - N/A   Clear